Location: Newark
(30.1000°N, 109.4667°E)
Time: 18:28:12
(UTC+00:00)

Explorer 7 - All Passes

Search period start: 21 February 2020 00:00
Search period end: 02 March 2020 00:00
Orbit: 485 x 679 km, 50.3° (Epoch: 21 February)

Date Brightness Start Highest point End Pass type
(mag) Time Alt. Az. Time Alt. Az. Time Alt. Az.
21 Feb - 03:18:27 10° SSW 03:22:55 38° SE 03:27:12 10° ENE daylight
21 Feb - 04:59:23 10° W 05:03:31 29° NW 05:07:29 10° NNE daylight
21 Feb - 10:09:38 10° NNE 10:10:17 10° NNE 10:10:56 10° NE daylight
21 Feb - 11:47:37 10° NW 11:51:31 61° NE 11:55:15 10° SE visible
21 Feb - 13:30:51 10° WSW 13:31:30 10° SW 13:32:09 10° SW visible
22 Feb - 03:22:57 10° SW 03:27:44 69° SE 03:32:20 10° NE daylight
22 Feb - 05:05:12 10° W 05:08:37 20° NNW 05:11:56 10° NNE daylight
22 Feb - 10:13:05 10° N 10:15:32 15° NNE 10:17:56 10° ENE daylight
22 Feb - 11:52:30 10° NW 11:56:25 67° SW 12:00:08 10° SE visible
23 Feb - 01:49:41 10° SSE 01:52:24 15° SE 01:55:04 10° E daylight
23 Feb - 03:27:49 10° SW 03:32:38 69° NW 03:37:14 10° NE daylight
23 Feb - 05:11:27 10° WNW 05:13:48 14° NNW 05:16:06 10° N daylight
23 Feb - 10:17:22 10° NNW 10:20:42 24° NE 10:23:53 10° E daylight
23 Feb - 11:57:40 10° WNW 12:01:13 33° SW 12:04:37 10° SSE visible
24 Feb - 01:53:05 10° S 01:57:07 26° SE 02:01:05 10° ENE daylight
24 Feb - 03:33:02 10° WSW 03:37:35 41° NW 03:41:58 10° NNE daylight
24 Feb - 10:21:55 10° NNW 10:25:45 40° NE 10:29:24 10° ESE daylight
24 Feb - 12:03:21 10° W 12:05:56 17° SW 12:08:28 10° SSW visible
25 Feb - 01:57:15 10° SSW 02:01:54 46° SE 02:06:26 10° ENE daylight
25 Feb - 03:38:35 10° W 03:42:38 26° NW 03:46:33 10° NNE daylight
25 Feb - 08:47:48 10° N 08:49:33 12° NNE 08:51:18 10° NE daylight
25 Feb - 10:26:40 10° NW 10:30:43 77° NE 10:34:32 10° SE daylight
26 Feb - 02:01:52 10° SW 02:06:45 82° SE 02:11:30 10° NE daylight
26 Feb - 03:44:28 10° WNW 03:47:45 18° NNW 03:50:57 10° NNE daylight
26 Feb - 08:51:50 10° NNW 08:54:47 18° NNE 08:57:37 10° ENE daylight
26 Feb - 10:31:37 10° NW 10:35:34 54° SW 10:39:18 10° SSE daylight
27 Feb - 00:28:03 10° S 00:31:22 18° SE 00:34:38 10° E daylight
27 Feb - 02:06:50 10° WSW 02:11:39 59° NW 02:16:20 10° NE daylight
27 Feb - 03:50:51 10° NW 03:52:59 13° NNW 03:55:05 10° N daylight
27 Feb - 08:56:15 10° NNW 08:59:55 29° NE 09:03:23 10° E daylight
27 Feb - 10:36:53 10° WNW 10:40:20 27° SW 10:43:38 10° S daylight
28 Feb - 00:31:46 10° S 00:36:05 32° SE 00:40:22 10° ENE daylight
28 Feb - 02:12:09 10° WSW 02:16:39 36° NW 02:21:01 10° NNE daylight
28 Feb - 07:23:06 10° NNE 07:23:31 10° NNE 07:23:55 10° NNE daylight
28 Feb - 09:00:52 10° NW 09:04:56 50° NE 09:08:46 10° ESE daylight
28 Feb - 10:42:49 10° W 10:45:02 14° SW 10:47:11 10° SSW daylight
29 Feb - 00:36:06 10° SSW 00:40:53 56° SE 00:45:36 10° NE daylight
29 Feb - 02:17:46 10° W 02:21:42 24° NW 02:25:33 10° NNE daylight
29 Feb - 07:26:21 10° N 07:28:48 15° NNE 07:31:10 10° ENE daylight
29 Feb - 09:05:40 10° NW 09:09:52 87° SW 09:13:47 10° SE daylight
29 Feb - 23:03:45 10° SSE 23:05:37 12° SE 23:07:30 10° ESE daylight
01 Mar - 00:40:50 10° SW 00:45:44 85° NW 00:50:34 10° NE daylight
01 Mar - 02:23:46 10° WNW 02:26:53 17° NNW 02:29:55 10° N daylight
01 Mar - 07:30:36 10° NNW 07:34:00 22° NNE 07:37:13 10° E daylight
01 Mar - 09:10:43 10° WNW 09:14:41 44° SW 09:18:26 10° SSE daylight
01 Mar - 23:06:35 10° S 23:10:18 22° SE 23:14:01 10° ENE daylight
